Tracking 32427 objects as of 11-Dec-2025
HD Live streaming from Space Station
objects crossing your sky now

STARLINK-2611

Track STARLINK-2611 now!
10-day predictions
STARLINK-2611 is classified as:


NORAD ID: 48364
Int'l Code: 2021-038M
Perigee: 553.5 km
Apogee: 555.2 km
Inclination: 53.1 °
Period: 95.6 minutes
Semi major axis: 6925 km
RCS: Unknown
Launch date: May 4, 2021
Source: United States (US)
Launch site: AIR FORCE EASTERN TEST RANGE (AFETR)
Your satellite tracking list
Your tracking list is empty




NASA's NSSDC Master Catalog

Two Line Element Set (TLE):
1 48364U 21038M   25344.58909465  .00001639  00000-0  12891-3 0  9996
2 48364  53.0556  36.7665 0001201  95.6478 264.4648 15.06405866253664
Source of the keplerian elements: AFSPC